Weather reports worldwide

Advertisment
Lviv, Ukraine (33393): temperature & dewpoint: 17.07.2019 11:00:00 - 23.07.2019 11:00:00 (EEST)Lviv, Ukraine (33393): wind speed: 17.07.2019 11:00:00 - 23.07.2019 11:00:00 (EEST)Lviv, Ukraine (33393): wind direction: 17.07.2019 11:00:00 - 23.07.2019 11:00:00 (EEST)Lviv, Ukraine (33393): reduced air pressure: 17.07.2019 11:00:00 - 23.07.2019 11:00:00 (EEST)Lviv, Ukraine (33393): visibility: 17.07.2019 11:00:00 - 23.07.2019 11:00:00 (EEST)
Date & Time tt [°C] td [°C] ff [km/h] ff [kn] dd ppp [hPa] vv [km]
23.07.2019 11:00:00 - - - - - - -
23.07.2019 10:00:00 20,0 14,0 11 6 W - 10
23.07.2019 09:00:00 18,0 15,3 11 6 W 1018,7 10
23.07.2019 08:00:00 18,0 17,0 11 6 W - 10
23.07.2019 07:00:00 16,0 15,0 0 0 N - 10
23.07.2019 06:00:00 15,6 14,9 0 0 N 1018,5 10
23.07.2019 05:00:00 16,0 15,0 0 0 N - 10
23.07.2019 04:00:00 16,0 15,0 0 0 N - 10
23.07.2019 03:00:00 16,2 15,5 0 0 N 1019,2 10
23.07.2019 02:00:00 17,0 16,0 0 0 N - 10
23.07.2019 01:00:00 16,0 15,0 0 0 N - 10
23.07.2019 00:00:00 16,5 15,5 0 0 N 1019,6 10
22.07.2019 23:00:00 17,0 15,0 0 0 N - 10
22.07.2019 22:00:00 18,0 16,0 0 0 N - 10
22.07.2019 21:00:00 19,7 15,7 0 0 N 1019,2 10
22.07.2019 20:00:00 23,0 13,0 7 4 NW - 10
22.07.2019 19:00:00 24,0 13,0 14 8 NW - 10
22.07.2019 18:00:00 24,6 14,4 14 8 NNW 1018,8 10
22.07.2019 17:00:00 23,0 16,0 18 10 NW - 10
22.07.2019 16:00:00 23,0 16,0 11 6 N - 10
22.07.2019 15:00:00 23,6 15,9 14 8 WNW 1019,9 10
22.07.2019 14:00:00 23,0 17,0 14 8 WNW - 10
22.07.2019 13:00:00 22,0 18,0 14 8 WNW - 10
22.07.2019 12:00:00 20,2 17,6 14 8 NW 1020,6 10
22.07.2019 11:00:00 18,0 18,0 14 8 WNW - 7
22.07.2019 10:00:00 17,0 17,0 14 8 W - 4,9
22.07.2019 09:00:00 16,8 16,1 11 6 W 1020,5 4,2
22.07.2019 08:00:00 17,0 17,0 11 6 W - 1,7
22.07.2019 07:00:00 16,0 16,0 7 4 W - 4,7
22.07.2019 06:00:00 16,5 16,2 7 4 WNW 1020,1 6
22.07.2019 05:00:00 17,0 17,0 11 6 WNW - 10
22.07.2019 04:00:00 17,0 17,0 14 8 WNW - 10
22.07.2019 03:00:00 17,0 16,8 11 6 WNW 1019,7 10
22.07.2019 02:00:00 17,0 16,0 7 4 W - 10
22.07.2019 01:00:00 17,0 16,0 11 6 WSW - 10
22.07.2019 00:00:00 16,7 16,4 7 4 SW 1019,6 10
21.07.2019 23:00:00 17,0 17,0 7 4 SW - 10
21.07.2019 22:00:00 17,0 17,0 7 4 WSW - 7
21.07.2019 21:00:00 17,7 17,0 11 6 WNW 1019,7 9
21.07.2019 20:00:00 19,0 17,0 22 12 WNW - 10
21.07.2019 19:00:00 19,0 18,0 0 0 N - 10
21.07.2019 18:00:00 18,1 17,6 7 4 SSE 1018,1 10
21.07.2019 17:00:00 22,0 17,0 29 16 W - 10
21.07.2019 16:00:00 27,0 18,0 11 6 SW - 10
21.07.2019 15:00:00 27,8 16,7 7 4 SSW 1015,8 10
21.07.2019 14:00:00 28,0 17,0 7 4 SW - 10
21.07.2019 13:00:00 27,0 16,0 11 6 SW - 10
21.07.2019 12:00:00 26,0 16,5 7 4 SW 1017,1 10
21.07.2019 11:00:00 25,0 16,0 7 4 S - 10
21.07.2019 10:00:00 24,0 16,0 11 6 SSW - 10
21.07.2019 09:00:00 22,1 17,1 7 4 SW 1017,7 10
21.07.2019 08:00:00 19,0 16,0 7 4 S - 10
21.07.2019 07:00:00 16,0 15,0 0 0 N - 10
21.07.2019 06:00:00 13,5 13,1 4 2 SSE 1018,5 10
21.07.2019 05:00:00 14,0 13,0 7 4 SSE - 10
21.07.2019 04:00:00 14,0 13,0 7 4 SSE - 10
21.07.2019 03:00:00 14,8 14,1 4 2 - 1018,7 10
21.07.2019 02:00:00 15,0 14,0 0 0 N - 10
21.07.2019 01:00:00 16,0 14,0 4 2 S - 10
21.07.2019 00:00:00 17,2 15,5 0 0 N 1018,4 10
20.07.2019 23:00:00 18,0 16,0 4 2 S - 10
20.07.2019 22:00:00 19,0 16,0 7 4 SE - 10
20.07.2019 21:00:00 22,5 15,0 0 0 N 1017,1 10
20.07.2019 20:00:00 24,0 15,0 7 4 WSW - 10
20.07.2019 19:00:00 25,0 14,0 14 8 W - 10
20.07.2019 18:00:00 25,6 14,5 11 6 W 1016,2 10
20.07.2019 17:00:00 25,0 15,0 14 8 W - 10
20.07.2019 16:00:00 24,0 17,0 11 6 SW - 10
20.07.2019 15:00:00 24,5 14,9 7 4 WSW 1017,4 10
20.07.2019 14:00:00 23,0 15,0 11 6 WSW - 10
20.07.2019 13:00:00 24,0 14,0 14 8 SW - 10
20.07.2019 12:00:00 23,9 13,8 7 4 SW 1017,5 10
20.07.2019 11:00:00 23,0 14,0 7 4 WSW - 10
20.07.2019 10:00:00 23,0 14,0 7 4 SW - 10
20.07.2019 09:00:00 19,1 15,4 4 2 - 1017,5 10
20.07.2019 08:00:00 18,0 15,0 0 0 N - 10
20.07.2019 07:00:00 16,0 14,0 0 0 N - 10
20.07.2019 06:00:00 15,3 13,9 4 2 SW 1017,5 10
20.07.2019 05:00:00 16,0 14,0 7 4 S - 10
20.07.2019 04:00:00 16,0 14,0 7 4 SSW - 10
20.07.2019 03:00:00 16,5 13,9 4 2 N 1017,1 10
20.07.2019 02:00:00 16,0 14,0 7 4 SSW - 10
20.07.2019 01:00:00 16,0 14,0 7 4 S - 10
20.07.2019 00:00:00 16,7 13,4 0 0 N 1016,6 10
19.07.2019 23:00:00 17,0 13,0 4 2 S - 10
19.07.2019 22:00:00 18,0 12,0 7 4 SSE - 10
19.07.2019 21:00:00 21,4 12,8 7 4 S 1015,0 10
19.07.2019 20:00:00 25,0 11,0 4 2 S - 10
19.07.2019 19:00:00 26,0 8,0 7 4 W - 10
19.07.2019 18:00:00 26,0 8,8 14 8 NW 1014,0 10
19.07.2019 17:00:00 26,0 8,0 14 8 W - 10
19.07.2019 16:00:00 25,0 8,0 11 6 W - 10
19.07.2019 15:00:00 25,3 8,9 7 4 W 1014,9 10
19.07.2019 14:00:00 24,0 9,0 11 6 W - 10
19.07.2019 13:00:00 24,0 8,0 7 4 NNW - 10
19.07.2019 12:00:00 22,8 8,7 4 2 WSW 1015,7 10
19.07.2019 11:00:00 22,0 12,0 11 6 SSW - 10
19.07.2019 10:00:00 20,0 12,0 7 4 SSW - 10
19.07.2019 09:00:00 17,7 12,4 4 2 SSW 1016,2 10
19.07.2019 08:00:00 15,0 12,0 4 2 - - 10
19.07.2019 07:00:00 10,0 10,0 0 0 N - 10
19.07.2019 06:00:00 8,1 7,7 0 0 N 1017,1 10
19.07.2019 05:00:00 8,0 8,0 0 0 N - 10
19.07.2019 04:00:00 9,0 8,0 0 0 N - 10
19.07.2019 03:00:00 9,2 8,6 0 0 N 1016,5 10
19.07.2019 02:00:00 10,0 10,0 0 0 N - 10
19.07.2019 01:00:00 11,0 10,0 0 0 N - 10
19.07.2019 00:00:00 11,7 10,4 0 0 N 1015,6 10
18.07.2019 23:00:00 13,0 12,0 0 0 N - 10
18.07.2019 22:00:00 15,0 12,0 0 0 N - 10
18.07.2019 21:00:00 19,7 11,0 4 2 - 1013,5 10
18.07.2019 20:00:00 21,0 9,0 11 6 W - 10
18.07.2019 19:00:00 22,0 10,0 14 8 W - 10
18.07.2019 18:00:00 21,2 9,6 14 8 WNW 1012,9 10
18.07.2019 17:00:00 22,0 9,0 18 10 W - 10
18.07.2019 16:00:00 21,0 10,0 14 8 W - 10
18.07.2019 15:00:00 20,5 10,3 14 8 W 1013,0 10
18.07.2019 14:00:00 19,0 11,0 18 10 WNW - 10
18.07.2019 13:00:00 19,0 10,0 18 10 NW - 10
18.07.2019 12:00:00 19,7 11,0 18 10 WNW 1012,9 10
18.07.2019 11:00:00 18,0 11,0 18 10 WNW - 10
18.07.2019 10:00:00 17,0 11,0 14 8 WNW - 10
18.07.2019 09:00:00 15,1 11,8 7 4 W 1012,9 10
18.07.2019 08:00:00 13,0 11,0 11 6 WSW - 10
18.07.2019 07:00:00 10,0 10,0 0 0 N - 10
18.07.2019 06:00:00 7,5 6,9 0 0 N 1013,4 10
18.07.2019 05:00:00 8,0 7,0 0 0 N - 10
18.07.2019 04:00:00 9,0 9,0 0 0 N - 10
18.07.2019 03:00:00 10,2 9,4 0 0 N 1013,1 10
18.07.2019 02:00:00 11,0 10,0 4 2 WSW - 10
18.07.2019 01:00:00 12,0 11,0 0 0 N - 10
18.07.2019 00:00:00 13,6 10,6 4 2 WNW 1012,2 10
17.07.2019 23:00:00 14,0 11,0 7 4 W - 10
17.07.2019 22:00:00 14,0 11,0 7 4 WNW - 10
17.07.2019 21:00:00 15,1 12,2 0 0 N 1011,0 10
17.07.2019 20:00:00 15,0 12,0 7 4 N - 10
17.07.2019 19:00:00 19,0 12,0 22 12 WNW - 10
17.07.2019 18:00:00 18,2 10,9 11 6 WNW 1009,8 10
17.07.2019 17:00:00 17,0 11,0 14 8 NNW - 10
17.07.2019 16:00:00 18,0 11,0 25 14 WNW - 10
17.07.2019 15:00:00 16,5 12,8 7 4 WNW 1009,7 10
17.07.2019 14:00:00 17,0 11,0 14 8 W - 10
17.07.2019 13:00:00 17,0 11,0 14 8 W - 10
17.07.2019 12:00:00 16,9 10,6 18 10 WNW 1009,9 10
17.07.2019 11:00:00 17,0 11,0 18 10 W - 10

tt = temperature
td = dewpoint
ff = wind speed
dd = wind direction
ppp = reduced air pressure
vv = visibility

Next stations